[Iaude] MPEC P74: 2024 PD1 [a=2.22,e=0.47,i=5.5,H=24.5]

mpec at cfa.harvard.edu mpec at cfa.harvard.edu
Tue Aug 6 07:37:53 EDT 2024


M.P.E.C. 2024-P74                                Issued 2024 August 6, 11:36 UT

     The Minor Planet Electronic Circulars contain information on unusual
         minor planets, routine data on comets and natural satellites,
         and occasional editorial announcements.  They are published
    on behalf of Division F of the International Astronomical Union by the
          Minor Planet Center, Smithsonian Astrophysical Observatory,
                          Cambridge, MA 02138, U.S.A.
			  
             Prepared using the Tamkin Foundation Computer Network

                              MPC at CFA.HARVARD.EDU
            URL https://www.minorplanetcenter.net/    ISSN 1523-6714

                                    2024 PD1                                    


Observations:
     K24P01D* C2024 08 03.50796321 16 01.317+00 22 04.34         21.76wXEP074F51
     K24P01D  C2024 08 03.52083721 16 03.443+00 21 57.91         21.79wXEP074F51
     K24P01D  C2024 08 03.53371321 16 05.574+00 21 51.85         21.95wXEP074F51
     K24P01D KC2024 08 04.23276521 18 15.97 +00 15 46.3          22.0 GVEP074H21
     K24P01D KC2024 08 04.23565421 18 16.45 +00 15 44.4          21.7 GVEP074H21
     K24P01D 3C2024 08 04.40002521 18 47.425+00 14 31.96         21.81GVEP074T14
     K24P01D 3C2024 08 04.40100421 18 47.588+00 14 31.43         21.79GVEP074T14
     K24P01D 3C2024 08 04.40199221 18 47.754+00 14 30.91         21.76GVEP074T14
     K24P01D KC2024 08 06.30560621 24 45.64 -00 04 01.4          22.1 GVEP074H21
     K24P01D KC2024 08 06.31407821 24 47.16 -00 04 06.6          22.1 GVEP074H21
     K24P01D 3C2024 08 06.39772921 25 04.991-00 04 44.54         21.73GVEP074T14
     K24P01D 3C2024 08 06.39870721 25 05.161-00 04 45.15         21.73GVEP074T14
     K24P01D 3C2024 08 06.39969321 25 05.331-00 04 45.77         21.72GVEP074T14

Observer details:
F51 Pan-STARRS 1, Haleakala.  Observers J. Herman, T. Lowe, P. Minguez, A.
    Schultz, I. Smith.  Measurers K. Chambers, T. de Boer, J. Fairlamb, H.
    Gao, M. Huber, C.-C. Lin, E. Magnier, Y. Ramanjooloo, R. Wainscoat, R.
    Weryk.  1.8-m Ritchey-Chretien + CCD.
H21 Astronomical Research Observatory, Westfield.  Observer R. Holmes.
    Measurers T. Linder, R. Holmes.  1.3-m f/4.0 astrograph + CCD.
T14 Canada-France-Hawaii Telescope, Maunakea.  Observers R. Wainscoat, A.
    Acohido, H. Flewelling, V. Khatu.  Measurers R. Weryk, R. Wainscoat.
    3.6-m f/4.1 reflector + CCD.

Orbital elements:
2024 PD1                                                 Earth MOID = 0.1658 AU
Epoch 2024 Oct. 17.0 TT = JDT 2460600.5                 MPC                     
M  16.67312              (2000.0)            P               Q                  
n   0.29857739     Peri.  171.61591     +0.86671075     +0.49755149             
a   2.2169953      Node   158.43408     -0.46305841     +0.82896031             
e   0.4695585      Incl.    5.53064     -0.18544377     +0.25547468             
P   3.30           H   24.50          G   0.15           U   9                  
Residuals in seconds of arc
240803 F51  0.1+  0.0     240804 T14  0.0   0.0     240806 T14  0.1-  0.0
240803 F51  0.0   0.1-    240804 T14  0.0   0.0     240806 T14  0.1-  0.0
240803 F51  0.1-  0.1+    240804 T14  0.0   0.0     240806 T14  0.1-  0.0
240804 H21  0.1+  0.5+    240806 H21  0.0   0.2-
240804 H21  0.0   0.1+    240806 H21  0.3+  0.1-

Ephemeris:
2024 PD1                 a,e,i = 2.22, 0.47, 6                   q = 1.1760
Date    TT    R. A. (2000) Decl.     Delta      r    Elong.  Phase     V
2024 07 07    20 12 46.7 -00 19 53   0.2844  1.2755   152.3    21.7    23.4
...
2024 07 22    20 42 30.8 +01 01 45   0.2218  1.2230   156.9    19.0    22.6
...
2024 07 30    21 02 55.0 +00 50 29   0.1975  1.2024   159.7    17.1    22.3
...
2024 08 05    21 20 38.3 +00 09 22   0.1836  1.1906   162.2    15.1    22.0
2024 08 06    21 23 47.6 -00 00 22   0.1816  1.1889   162.6    14.7    22.0
2024 08 07    21 27 00.3 -00 10 54   0.1798  1.1874   163.1    14.4    22.0
...
2024 08 13    21 47 19.8 -01 30 12   0.1712  1.1801   166.2    11.8    21.7
...
2024 08 21    22 16 20.8 -03 50 07   0.1662  1.1760   170.9     7.8    21.5
...
2024 09 05    23 08 40.4 -08 39 09   0.1776  1.1855   176.3     3.1    21.4

A. U. Tomatic                (C) Copyright 2024 MPC           M.P.E.C. 2024-P74





More information about the Iaude mailing list